Time,TemperatureF,DewpointF,PressureIn,WindDirection,WindDirectionDegrees,WindSpeedMPH,WindSpeedGustMPH,Humidity,HourlyPrecipIn,Conditions,Clouds,dailyrainin,SoftwareType,DateUTC
2013-01-11 07:33:00,42.0,24.0,-100.00,North,-999,-999.0,-999.0,49,-99.99,,,-99.99,,2013-01-11 14:33:00,
2013-01-11 07:43:00,40.0,23.0,-100.00,SW,225,6.0,7.0,49,0.00,,,-99.99,,2013-01-11 14:43:00,
2013-01-11 07:53:00,40.0,23.0,-100.00,South,180,3.0,8.0,49,0.00,,,-99.99,,2013-01-11 14:53:00,
2013-01-11 08:03:00,40.0,23.0,-100.00,SSE,155,7.0,9.0,50,0.00,,,-99.99,,2013-01-11 15:03:00,
2013-01-11 08:13:00,41.0,24.0,-100.00,SE,125,11.0,18.0,50,0.00,,,-99.99,,2013-01-11 15:13:00,
2013-01-11 08:23:00,41.0,25.0,-100.00,East,100,11.0,20.0,53,0.00,,,-99.99,,2013-01-11 15:23:00,
2013-01-11 08:33:00,37.0,26.0,-100.00,East,95,12.0,25.0,64,0.00,,,-99.99,,2013-01-11 15:33:00,
2013-01-11 08:43:00,37.0,26.0,-100.00,East,95,12.0,25.0,64,0.00,,,-99.99,,2013-01-11 15:43:00,
2013-01-11 08:52:00,37.0,27.0,-100.00,East,100,9.0,19.0,66,0.00,,,-99.99,,2013-01-11 15:52:00,
2013-01-11 09:03:00,38.0,27.0,-100.00,ESE,105,9.0,14.0,64,0.00,,,-99.99,,2013-01-11 16:03:00,
2013-01-11 09:12:00,38.0,26.0,-100.00,ESE,120,4.0,12.0,60,0.00,,,-99.99,,2013-01-11 16:12:00,
2013-01-11 09:22:00,39.0,26.0,-100.00,SSW,200,5.0,6.0,59,0.00,,,-99.99,,2013-01-11 16:22:00,
2013-01-11 09:33:00,39.0,25.0,-100.00,SSW,205,4.0,7.0,58,0.00,,,-99.99,,2013-01-11 16:33:00,
2013-01-11 09:42:00,39.0,25.0,-100.00,WNW,295,2.0,7.0,57,0.00,,,-99.99,,2013-01-11 16:42:00,
2013-01-11 09:52:00,39.0,25.0,-100.00,SSE,150,1.0,4.0,57,0.00,,,-99.99,,2013-01-11 16:52:00,
2013-01-11 10:03:00,39.0,25.0,-100.00,NW,320,2.0,7.0,57,0.00,,,-99.99,,2013-01-11 17:03:00,
2013-01-11 10:12:00,39.0,22.0,-100.00,NE,40,6.0,13.0,50,0.00,,,-99.99,,2013-01-11 17:12:00,
2013-01-11 10:22:00,36.0,18.0,-100.00,NE,50,13.0,26.0,47,0.00,,,-99.99,,2013-01-11 17:22:00,
2013-01-11 10:33:00,36.0,17.0,-100.00,NE,50,13.0,21.0,46,0.00,,,-99.99,,2013-01-11 17:33:00,
2013-01-11 10:43:00,35.0,16.0,-100.00,ENE,70,12.0,31.0,45,0.00,,,-99.99,,2013-01-11 17:43:00,
2013-01-11 10:53:00,35.0,16.0,-100.00,ENE,75,13.0,25.0,45,0.00,,,-99.99,,2013-01-11 17:53:00,
2013-01-11 11:03:00,35.0,16.0,-100.00,ENE,75,11.0,27.0,44,0.00,,,-99.99,,2013-01-11 18:03:00,
2013-01-11 11:12:00,35.0,15.0,-100.00,ENE,60,9.0,20.0,43,0.00,,,-99.99,,2013-01-11 18:12:00,
2013-01-11 11:23:00,35.0,15.0,-100.00,ENE,60,9.0,20.0,43,0.00,,,-99.99,,2013-01-11 18:23:00,
2013-01-11 11:32:00,35.0,15.0,-100.00,East,85,7.0,20.0,42,0.00,,,-99.99,,2013-01-11 18:32:00,
2013-01-11 11:43:00,35.0,15.0,-100.00,East,85,7.0,20.0,42,0.00,,,-99.99,,2013-01-11 18:43:00,
2013-01-11 11:53:00,36.0,15.0,-100.00,East,80,8.0,17.0,40,0.00,,,-99.99,,2013-01-11 18:53:00,
2013-01-11 12:02:00,36.0,15.0,-100.00,East,80,8.0,17.0,40,0.00,,,-99.99,,2013-01-11 19:02:00,
2013-01-11 12:12:00,36.0,13.0,-100.00,ENE,60,11.0,17.0,38,0.00,,,-99.99,,2013-01-11 19:12:00,
2013-01-11 12:22:00,36.0,13.0,-100.00,East,85,14.0,25.0,37,0.00,,,-99.99,,2013-01-11 19:22:00,
2013-01-11 12:32:00,36.0,12.0,-100.00,ESE,105,10.0,24.0,36,0.00,,,-99.99,,2013-01-11 19:32:00,
2013-01-11 12:43:00,35.0,16.0,-100.00,SW,230,7.0,14.0,45,0.00,,,-99.99,,2013-01-11 19:43:00,
2013-01-11 12:53:00,33.0,20.0,-100.00,SW,235,6.0,17.0,56,0.00,,,-99.99,,2013-01-11 19:53:00,
2013-01-11 13:02:00,33.0,22.0,-100.00,WSW,240,15.0,21.0,63,0.00,,,-99.99,,2013-01-11 20:02:00,
2013-01-11 13:12:00,33.0,22.0,-100.00,WSW,240,15.0,21.0,63,0.00,,,-99.99,,2013-01-11 20:12:00,
2013-01-11 13:22:00,29.0,25.0,-100.00,SSW,210,11.0,21.0,82,0.00,,,-99.99,,2013-01-11 20:22:00,
2013-01-11 13:33:00,29.0,25.0,-100.00,SW,215,7.0,14.0,86,0.00,,,-99.99,,2013-01-11 20:33:00,
2013-01-11 13:43:00,29.0,25.0,-100.00,SW,215,7.0,14.0,86,0.00,,,-99.99,,2013-01-11 20:43:00,
2013-01-11 13:52:00,29.0,26.0,-100.00,SW,235,6.0,10.0,89,0.00,,,-99.99,,2013-01-11 20:52:00,
2013-01-11 14:03:00,29.0,26.0,-100.00,West,260,6.0,12.0,90,0.00,,,-99.99,,2013-01-11 21:03:00,
2013-01-11 14:12:00,29.0,26.0,-100.00,West,260,6.0,12.0,90,0.00,,,-99.99,,2013-01-11 21:12:00,
2013-01-11 14:23:00,27.0,25.0,-100.00,West,265,11.0,21.0,93,0.00,,,-99.99,,2013-01-11 21:23:00,
2013-01-11 14:33:00,27.0,25.0,-100.00,West,265,11.0,21.0,93,0.00,,,-99.99,,2013-01-11 21:33:00,
2013-01-11 14:42:00,27.0,25.0,-100.00,West,275,8.0,17.0,94,0.00,,,-99.99,,2013-01-11 21:42:00,
2013-01-11 14:52:00,28.0,26.0,-100.00,SW,230,3.0,14.0,93,0.00,,,-99.99,,2013-01-11 21:52:00,
2013-01-11 15:02:00,28.0,26.0,-100.00,SW,230,3.0,14.0,93,0.00,,,-99.99,,2013-01-11 22:02:00,
2013-01-11 15:12:00,27.0,25.0,-100.00,WSW,250,9.0,17.0,92,0.00,,,-99.99,,2013-01-11 22:12:00,
2013-01-11 15:22:00,25.0,23.0,-100.00,West,270,10.0,17.0,93,0.00,,,-99.99,,2013-01-11 22:22:00,
2013-01-11 15:33:00,24.0,23.0,-100.00,West,270,7.0,15.0,92,0.00,,,-99.99,,2013-01-11 22:33:00,
2013-01-11 15:42:00,24.0,23.0,-100.00,West,270,7.0,15.0,92,0.00,,,-99.99,,2013-01-11 22:42:00,
2013-01-11 15:52:00,23.0,21.0,-100.00,WSW,250,9.0,16.0,91,0.00,,,-99.99,,2013-01-11 22:52:00,
2013-01-11 16:02:00,23.0,21.0,-100.00,SW,230,6.0,11.0,91,0.00,,,-99.99,,2013-01-11 23:02:00,
2013-01-11 16:12:00,23.0,21.0,-100.00,SW,225,5.0,9.0,91,0.00,,,-99.99,,2013-01-11 23:12:00,
2013-01-11 16:22:00,21.0,19.0,-100.00,West,275,5.0,12.0,91,0.00,,,-99.99,,2013-01-11 23:22:00,
2013-01-11 16:32:00,21.0,19.0,-100.00,West,275,6.0,10.0,90,0.00,,,-99.99,,2013-01-11 23:32:00,
2013-01-11 16:43:00,21.0,19.0,-100.00,NW,320,2.0,9.0,90,0.00,,,-99.99,,2013-01-11 23:43:00,
2013-01-11 16:53:00,21.0,19.0,-100.00,NW,320,2.0,9.0,90,0.00,,,-99.99,,2013-01-11 23:53:00,
2013-01-11 17:02:00,21.0,19.0,-100.00,NW,320,4.0,8.0,91,0.00,,,-99.99,,2013-01-12 00:02:00,
2013-01-11 17:10:00,20.0,18.0,-100.00,SSW,205,9.0,12.0,92,0.00,,,-99.99,,2013-01-12 00:10:00,
2013-01-11 17:12:00,20.0,19.0,-100.00,WNW,295,7.0,9.0,92,0.00,,,-99.99,,2013-01-12 00:12:00,
2013-01-11 17:22:00,20.0,18.0,-100.00,WNW,300,7.0,11.0,92,0.00,,,-99.99,,2013-01-12 00:22:00,
2013-01-11 17:32:00,20.0,18.0,-100.00,SSW,205,9.0,12.0,92,0.00,,,-99.99,,2013-01-12 00:32:00,
2013-01-11 17:43:00,20.0,18.0,-100.00,SSW,205,9.0,12.0,92,0.00,,,-99.99,,2013-01-12 00:43:00,
2013-01-11 17:52:00,20.0,18.0,-100.00,SSW,205,9.0,12.0,92,0.00,,,-99.99,,2013-01-12 00:52:00,
2013-01-11 18:02:00,20.0,18.0,-100.00,SSW,205,9.0,12.0,92,0.00,,,-99.99,,2013-01-12 01:02:00,